Flag for Canada Weather past 2 weeks in Resolute Bay, Nunavut Territory, Canada

Now
28 °F

Light snow. Low clouds.


Feels Like: 22 °F
Forecast: 18 / 23 °F
Wind: 6 mph from Northwest

Location: Resolute

Current Time: Sep 20, 2014 at 7:57:00 PM

Latest Report: Sep 20, 2014 at 7:00 PM


Visibility: 15 mi

Pressure: 29.73 "Hg

Humidity: 93%

Dew point: 27 °F

Location of Resolute BayLocation

Historic Weather in Resolute Bay — Graph

°F

Resolute Bay temperature yesterday

Maximum temperature yesterday: 32 °F (at 11:00 AM)
Minimum temperature yesterday: 23 °F (at 9:00 PM)
Average temperature yesterday: 28 °F

Past Weeks' High & Low Weather Summary

 TemperatureHumidityPressure
High39 °F (Sep 5, 6:00 PM)100% (Sep 6, 11:00 AM)30.02 "Hg (Sep 6, 11:00 AM)
Low19 °F (Sep 12, 11:00 PM)70% (Sep 7, 5:00 PM)29.30 "Hg (Sep 12, 2:00 PM)
Average27 °F89%29.76 "Hg
* Reported Sep 5 6:00 PM — Sep 20 6:00 PM, Resolute Bay, Weather by CustomWeather, © 2014

Note: Actual official high and low records may vary slightly from our data, if they occured in-between our weather recording intervals... More about our weather records

Advertising

Resolute Bay weather history for previous 24 hours

 ConditionsComfort  
Time TempWeatherWind HumidityBarometerVisibility
6:00 PM
Sep 20
27 °FLight snow. Mostly cloudy.6 mph100%29.73 "Hg15 mi
4:00 PM27 °FLight snow. Low clouds.6 mph93%29.74 "Hg12 mi
3:00 PM27 °FMore clouds than sun.3 mph93%29.74 "Hg15 mi
2:00 PM27 °FPartly sunny.2 mph93%29.73 "Hg15 mi
1:00 PM27 °FLight snow. More clouds than sun.2 mph93%29.74 "Hg15 mi
12:00 PM27 °FLight snow. More clouds than sun.2 mph93%29.74 "Hg15 mi
8:00 AM25 °FLight snow. Scattered clouds.3 mph93%29.75 "Hg6 mi
7:00 AM25 °FLight snow. Partly sunny.No wind93%29.75 "Hg9 mi
6:00 AM27 °FLight snow. Overcast.3 mph86%29.75 "Hg9 mi
5:00 AM25 °FLight snow. Mostly cloudy.10 mph93%29.75 "Hg10 mi
4:00 AM25 °FLight snow. Mostly cloudy.12 mph93%29.75 "Hg12 mi
3:00 AM23 °FLight snow. Passing clouds.9 mph93%29.76 "Hg15 mi
2:00 AM23 °FPartly cloudy.14 mph93%29.76 "Hg15 mi
1:00 AM23 °FPassing clouds.14 mph93%29.76 "Hg15 mi
12:00 AM21 °FPassing clouds.13 mph93%29.75 "Hg15 mi
11:00 PM
Sep 19
23 °FPassing clouds.15 mph86%29.76 "Hg15 mi
10:00 PM23 °FPassing clouds.15 mph86%29.75 "Hg15 mi
9:00 PM23 °FPassing clouds.7 mph86%29.76 "Hg15 mi
8:00 PM25 °FPassing clouds.8 mph86%29.75 "Hg15 mi
7:00 PM27 °FPartly sunny.12 mph80%29.75 "Hg15 mi
Weather by CustomWeather, © 2014

See weather overviewHow to use our weather pages